When you browse on this site, cookies collect data to enhance your experience and personalize the content and advertising you see.
Visit our Privacy Policy to learn more. By continuing to use the site, you agree to this use of cookies and data.

Hourly Weather Khartoum

Today, 3 July, Friday

Time Temperature Precipitation Wind Pressure Humidity
00:00 +39°C° 0 mm 7 mps 722 mmHg 30%
01:00 +36°C° 0 mm 7 mps 722 mmHg 34%
02:00 +35°C° 0 mm 6 mps 722 mmHg 38%
03:00 +35°C° 0 mm 6 mps 722 mmHg 40%
04:00 +34°C° 0 mm 6 mps 723 mmHg 42%
05:00 +34°C° 0 mm 6 mps 723 mmHg 43%
06:00 +34°C° 0 mm 7 mps 724 mmHg 45%
07:00 +34°C° 0 mm 9 mps 724 mmHg 46%
08:00 +34°C° 0 mm 10 mps 724 mmHg 47%
09:00 +37°C° 0 mm 9 mps 724 mmHg 43%
10:00 +38°C° 0 mm 9 mps 724 mmHg 38%
11:00 +40°C° 0 mm 9 mps 725 mmHg 34%
12:00 +41°C° 0 mm 8 mps 724 mmHg 31%
13:00 +43°C° 0 mm 8 mps 723 mmHg 28%
14:00 +44°C° 0 mm 7 mps 723 mmHg 25%
15:00 +44°C° 0 mm 6 mps 723 mmHg 24%
16:00 +42°C° 0 mm 6 mps 722 mmHg 24%
17:00 +42°C° 0 mm 5 mps 722 mmHg 24%
18:00 +42°C° 0 mm 5 mps 722 mmHg 25%
19:00 +41°C° 0 mm 5 mps 723 mmHg 26%
20:00 +40°C° 0 mm 5 mps 723 mmHg 27%
21:00 +39°C° 0 mm 5 mps 723 mmHg 29%
22:00 +39°C° 0 mm 5 mps 723 mmHg 31%
23:00 +38°C° 0 mm 6 mps 724 mmHg 33%

Tomorrow, 4 July, Saturday

Time Temperature Precipitation Wind Pressure Humidity
00:00 +36°C° 0.2 mm 5 mps 723 mmHg 35%
01:00 +35°C° 0.2 mm 5 mps 723 mmHg 37%
02:00 +35°C° 0.2 mm 5 mps 723 mmHg 40%
03:00 +34°C° 0 mm 6 mps 723 mmHg 40%
04:00 +34°C° 0 mm 6 mps 723 mmHg 41%
05:00 +34°C° 0 mm 7 mps 724 mmHg 41%
06:00 +34°C° 0 mm 7 mps 724 mmHg 40%
07:00 +35°C° 0 mm 8 mps 724 mmHg 39%
08:00 +35°C° 0 mm 8 mps 725 mmHg 38%
09:00 +38°C° 0 mm 7 mps 725 mmHg 35%
10:00 +39°C° 0 mm 7 mps 725 mmHg 32%
11:00 +41°C° 0 mm 6 mps 725 mmHg 29%
12:00 +42°C° 0 mm 5 mps 724 mmHg 26%
13:00 +43°C° 0 mm 4 mps 724 mmHg 23%
14:00 +44°C° 0 mm 4 mps 723 mmHg 21%
15:00 +44°C° 0 mm 3 mps 723 mmHg 20%
16:00 +44°C° 0 mm 3 mps 722 mmHg 19%
17:00 +44°C° 0 mm 3 mps 722 mmHg 19%
18:00 +43°C° 0 mm 3 mps 722 mmHg 20%
19:00 +42°C° 0 mm 3 mps 722 mmHg 21%
20:00 +41°C° 0 mm 2 mps 723 mmHg 21%
21:00 +40°C° 0 mm 3 mps 723 mmHg 23%
22:00 +40°C° 0 mm 4 mps 723 mmHg 24%
23:00 +40°C° 0 mm 4 mps 722 mmHg 25%

Day after tomorrow, 5 July, Sunday

Time Temperature Precipitation Wind Pressure Humidity
00:00 +38°C° 0 mm 4 mps 722 mmHg 27%
01:00 +38°C° 0 mm 4 mps 722 mmHg 28%
02:00 +37°C° 0 mm 4 mps 722 mmHg 29%
03:00 +37°C° 0 mm 4 mps 722 mmHg 30%
04:00 +36°C° 0 mm 4 mps 721 mmHg 31%
05:00 +36°C° 0 mm 4 mps 721 mmHg 33%
06:00 +37°C° 0 mm 5 mps 722 mmHg 31%
07:00 +39°C° 0 mm 5 mps 722 mmHg 29%
08:00 +40°C° 0 mm 6 mps 723 mmHg 27%
09:00 +41°C° 0 mm 5 mps 723 mmHg 25%
10:00 +42°C° 0 mm 4 mps 723 mmHg 23%
11:00 +43°C° 0 mm 4 mps 723 mmHg 21%
12:00 +44°C° 0 mm 3 mps 722 mmHg 20%
13:00 +44°C° 0 mm 3 mps 721 mmHg 19%
14:00 +45°C° 0 mm 2 mps 721 mmHg 18%
15:00 +43°C° 0.3 mm 4 mps 720 mmHg 22%
16:00 +41°C° 0.3 mm 6 mps 720 mmHg 25%
17:00 +40°C° 0.3 mm 8 mps 719 mmHg 28%
18:00 +40°C° 0.1 mm 7 mps 720 mmHg 27%
19:00 +40°C° 0.1 mm 5 mps 720 mmHg 26%
20:00 +40°C° 0.1 mm 4 mps 720 mmHg 24%
21:00 +40°C° 0 mm 4 mps 721 mmHg 25%
22:00 +40°C° 0 mm 5 mps 721 mmHg 25%
23:00 +40°C° 0 mm 5 mps 721 mmHg 26%

6 July, Monday

Time Temperature Precipitation Wind Pressure Humidity
00:00 +38°C° 0 mm 7 mps 721 mmHg 35%
01:00 +35°C° 0 mm 9 mps 721 mmHg 44%
02:00 +33°C° 0 mm 10 mps 721 mmHg 53%
03:00 +32°C° 0 mm 10 mps 721 mmHg 53%
04:00 +32°C° 0 mm 9 mps 721 mmHg 52%
05:00 +32°C° 0 mm 9 mps 721 mmHg 52%
06:00 +32°C° 0 mm 8 mps 721 mmHg 49%
07:00 +33°C° 0 mm 8 mps 722 mmHg 47%
08:00 +34°C° 0 mm 7 mps 722 mmHg 45%
09:00 +35°C° 0 mm 7 mps 722 mmHg 40%
10:00 +38°C° 0 mm 6 mps 722 mmHg 35%
11:00 +40°C° 0 mm 6 mps 722 mmHg 30%
12:00 +41°C° 0 mm 5 mps 722 mmHg 27%
13:00 +42°C° 0 mm 5 mps 721 mmHg 24%
14:00 +43°C° 0 mm 5 mps 721 mmHg 21%
15:00 +43°C° 0 mm 4 mps 720 mmHg 19%
16:00 +44°C° 0 mm 3 mps 720 mmHg 18%
17:00 +43°C° 0 mm 2 mps 720 mmHg 16%
18:00 +42°C° 0 mm 2 mps 720 mmHg 17%
19:00 +43°C° 0 mm 3 mps 721 mmHg 18%
20:00 +42°C° 0 mm 3 mps 721 mmHg 18%
21:00 +41°C° 0 mm 5 mps 721 mmHg 23%
22:00 +39°C° 0 mm 8 mps 721 mmHg 28%
23:00 +38°C° 0 mm 11 mps 722 mmHg 33%

7 July, Tuesday

Time Temperature Precipitation Wind Pressure Humidity
00:00 +38°C° 0 mm 10 mps 722 mmHg 35%
01:00 +37°C° 0 mm 10 mps 722 mmHg 36%
02:00 +37°C° 0 mm 10 mps 722 mmHg 38%
03:00 +36°C° 0 mm 10 mps 722 mmHg 42%
04:00 +34°C° 0 mm 10 mps 722 mmHg 46%
05:00 +33°C° 0 mm 10 mps 722 mmHg 51%
06:00 +33°C° 0 mm 10 mps 723 mmHg 49%
07:00 +33°C° 0 mm 11 mps 723 mmHg 48%
08:00 +33°C° 0 mm 11 mps 724 mmHg 47%
09:00 +36°C° 0 mm 10 mps 724 mmHg 43%
10:00 +37°C° 0 mm 10 mps 724 mmHg 38%
11:00 +39°C° 0 mm 10 mps 724 mmHg 33%
12:00 +40°C° 0 mm 9 mps 724 mmHg 30%
13:00 +42°C° 0 mm 9 mps 723 mmHg 27%
14:00 +43°C° 0 mm 8 mps 723 mmHg 25%
15:00 +43°C° 0 mm 7 mps 723 mmHg 25%
16:00 +43°C° 0 mm 7 mps 723 mmHg 25%
17:00 +41°C° 0 mm 6 mps 723 mmHg 25%
18:00 +40°C° 0.2 mm 6 mps 723 mmHg 27%
19:00 +39°C° 0.2 mm 6 mps 723 mmHg 30%
20:00 +38°C° 0.2 mm 6 mps 724 mmHg 32%
21:00 +36°C° 0 mm 7 mps 724 mmHg 34%
22:00 +35°C° 0 mm 8 mps 724 mmHg 37%
23:00 +34°C° 0 mm 9 mps 724 mmHg 40%

8 July, Wednesday

Time Temperature Precipitation Wind Pressure Humidity
00:00 +34°C° 0 mm 9 mps 723 mmHg 43%
01:00 +33°C° 0 mm 9 mps 723 mmHg 47%
02:00 +32°C° 0 mm 9 mps 723 mmHg 50%
03:00 +32°C° 0 mm 9 mps 723 mmHg 52%
04:00 +31°C° 0 mm 9 mps 723 mmHg 54%
05:00 +31°C° 0 mm 9 mps 724 mmHg 56%
06:00 +32°C° 0 mm 9 mps 724 mmHg 54%
07:00 +32°C° 0 mm 9 mps 725 mmHg 51%
08:00 +33°C° 0 mm 9 mps 725 mmHg 49%
09:00 +35°C° 0 mm 9 mps 725 mmHg 43%
10:00 +38°C° 0 mm 8 mps 725 mmHg 38%
11:00 +39°C° 0 mm 8 mps 726 mmHg 32%
12:00 +40°C° 0 mm 8 mps 725 mmHg 29%
13:00 +41°C° 0 mm 7 mps 724 mmHg 27%
14:00 +43°C° 0 mm 7 mps 724 mmHg 25%
15:00 +42°C° 0 mm 6 mps 724 mmHg 24%
16:00 +42°C° 0 mm 5 mps 723 mmHg 23%
17:00 +42°C° 0 mm 4 mps 723 mmHg 23%
18:00 +41°C° 0 mm 5 mps 724 mmHg 25%
19:00 +40°C° 0 mm 5 mps 724 mmHg 27%
20:00 +39°C° 0 mm 6 mps 724 mmHg 29%
21:00 +38°C° 0.1 mm 7 mps 724 mmHg 31%
22:00 +38°C° 0.1 mm 7 mps 724 mmHg 33%
23:00 +37°C° 0.1 mm 8 mps 724 mmHg 35%
Show more